Temperature
-10 -10 -10 -10 -11 -11 -12 -12 -13 -13 -12 -12 -11 -10 -10 -10 -10 -9 -9 -8 -7 -6 -5 -4 -4 -3 -2 -2 -1 1 3 5 6 8 10 11 12 13
-9 -9 -10 -10 -11 -11 -11 -12 -12 -13 -13 -12 -11 -11 -10 -10 -10 -10 -9 -8 -7 -6 -6 -5 -4 -4 -3 -2 -1 -0 2 4 6 8 9 11 12 12
-9 -9 -10 -10 -11 -11 -11 -12 -12 -12 -13 -12 -11 -11 -10 -10 -10 -9 -9 -8 -7 -6 -6 -5 -5 -4 -4 -3 -2 -1 1 3 5 7 9 10 11 12
-9 -9 -10 -10 -11 -11 -11 -11 -12 -12 -12 -12 -11 -11 -11 -10 -10 -10 -10 -9 -8 -7 -6 -5 -5 -4 -4 -3 -2 -1 1 3 4 6 8 10 11 12
-9 -9 -10 -10 -11 -11 -11 -11 -11 -11 -11 -12 -11 -11 -11 -11 -11 -10 -10 -9 -8 -7 -6 -5 -5 -4 -3 -3 -2 -1 1 3 5 6 8 9 10 11
-9 -9 -10 -10 -11 -11 -11 -11 -11 -11 -11 -11 -11 -11 -11 -11 -11 -11 -11 -9 -8 -7 -6 -5 -5 -4 -3 -2 -1 0 1 2 4 6 7 9 10 11
-9 -9 -10 -11 -11 -11 -11 -11 -11 -11 -11 -11 -11 -12 -12 -12 -12 -11 -11 -10 -9 -7 -6 -5 -5 -4 -3 -2 -1 -0 1 3 4 5 7 9 10 11
-9 -9 -10 -10 -11 -11 -11 -11 -11 -11 -11 -11 -11 -12 -12 -12 -12 -12 -12 -11 -10 -8 -7 -6 -5 -4 -2 -1 -0 1 2 3 4 5 7 8 10 11
-9 -9 -10 -10 -11 -11 -10 -10 -11 -11 -11 -11 -12 -12 -12 -12 -12 -12 -11 -11 -11 -9 -9 -6 -4 -4 -2 -1 -0 1 2 3 4 5 7 8 9 10
-9 -9 -10 -10 -10 -10 -10 -10 -11 -11 -11 -12 -12 -12 -12 -12 -12 -11 -11 -11 -10 -9 -9 -7 -4 -3 -2 -2 -0 1 2 3 4 5 6 8 9 10
-9 -9 -10 -10 -10 -9 -10 -11 -11 -11 -12 -12 -12 -12 -12 -12 -12 -11 -11 -11 -11 -9 -8 -8 -5 -3 -2 -1 -0 1 2 3 4 5 6 8 9 10
-9 -9 -10 -10 -10 -10 -10 -11 -11 -11 -12 -12 -12 -12 -12 -12 -12 -12 -12 -11 -11 -10 -7 -7 -5 -4 -2 -0 0 1 2 3 4 5 6 7 9 10
-9 -10 -10 -10 -10 -10 -11 -11 -11 -11 -12 -12 -13 -12 -12 -12 -12 -12 -11 -11 -11 -9 -7 -7 -5 -4 -3 -1 1 2 2 3 4 5 6 7 8 9
-10 -10 -10 -10 -10 -11 -11 -11 -12 -12 -12 -13 -13 -13 -12 -12 -11 -11 -11 -10 -9 -7 -7 -7 -6 -4 -3 -2 0 2 2 3 4 5 6 7 8 9
-10 -10 -10 -10 -10 -11 -11 -12 -12 -12 -13 -13 -13 -13 -12 -12 -11 -10 -10 -9 -8 -7 -6 -5 -5 -4 -4 -3 -1 1 2 4 4 5 6 7 8 9
-9 -9 -10 -10 -10 -10 -11 -11 -12 -12 -13 -13 -13 -12 -12 -11 -11 -10 -9 -8 -7 -6 -5 -5 -4 -4 -3 -2 -1 1 2 3 4 5 6 7 8 9
-9 -9 -9 -9 -10 -10 -11 -11 -12 -12 -12 -12 -12 -12 -12 -11 -10 -10 -9 -8 -7 -5 -4 -4 -3 -3 -3 -2 -1 1 2 3 5 5 6 7 8 9
-9 -9 -9 -10 -10 -11 -11 -11 -11 -12 -12 -12 -12 -12 -12 -11 -10 -9 -8 -7 -6 -5 -4 -3 -3 -3 -2 -1 -0 1 2 3 5 5 6 7 8 9
-9 -9 -9 -10 -10 -11 -11 -11 -11 -11 -11 -12 -12 -12 -11 -11 -10 -9 -8 -7 -6 -5 -4 -3 -3 -2 -2 -1 1 1 2 4 5 6 7 7 8 9
-8 -9 -9 -10 -10 -10 -11 -11 -11 -11 -11 -11 -11 -11 -11 -11 -10 -9 -8 -7 -6 -5 -4 -3 -2 -2 -1 -0 1 2 3 4 5 6 7 8 8 9
-8 -9 -9 -10 -10 -10 -10 -11 -11 -11 -11 -11 -11 -11 -11 -11 -10 -9 -8 -7 -6 -5 -4 -3 -2 -2 -1 -0 1 2 3 4 5 6 7 8 8 9
-8 -9 -9 -9 -10 -10 -10 -10 -11 -11 -11 -11 -11 -11 -11 -11 -10 -9 -9 -7 -6 -5 -4 -3 -2 -1 -1 0 1 2 3 4 5 6 7 8 9 9
-8 -8 -9 -9 -9 -10 -10 -10 -10 -10 -11 -11 -11 -11 -11 -11 -10 -9 -9 -8 -6 -5 -4 -3 -2 -1 -0 0 1 2 3 4 5 6 7 8 9 10
Wind_Speed
11 12 11 11 10 10 10 10 11 17 18 14 11 9 11 14 20 18 16 22 25 24 23 21 21 21 22 22 23 24 23 22 21 19 19 18 18 22
11 12 13 12 11 11 11 11 11 14 16 14 13 13 13 14 21 18 17 24 23 23 23 22 22 22 23 24 24 24 24 23 22 21 20 19 18 19
13 14 16 15 13 12 11 11 12 12 16 16 14 12 12 13 13 14 16 13 15 21 22 22 23 24 25 25 25 25 24 23 23 22 21 20 18 18
16 16 17 15 15 13 12 12 12 13 15 19 15 12 12 11 12 12 12 12 11 20 23 23 25 26 26 26 26 25 25 24 23 22 22 20 19 17
17 16 17 15 15 13 13 13 13 14 13 15 15 12 10 10 11 12 12 10 12 16 20 22 23 25 26 26 26 26 25 24 24 22 21 19 18 17
15 14 14 14 14 14 13 14 14 13 13 12 13 12 11 8 8 9 12 9 11 12 15 17 20 22 23 24 25 26 25 23 23 22 20 18 16 16
10 11 12 15 19 16 13 11 11 11 11 11 13 13 11 8 8 8 12 11 11 10 9 9 9 9 11 17 22 23 23 23 22 22 21 18 15 15
9 9 11 13 18 22 24 23 20 13 11 12 12 12 11 10 10 10 10 11 8 4 5 9 9 10 10 10 17 21 21 22 22 21 20 18 15 15
9 9 10 12 17 11 19 23 18 21 21 15 14 13 14 12 12 13 12 12 12 8 8 10 7 10 10 12 20 21 21 20 20 19 19 17 16 15
8 9 10 12 15 17 14 9 10 12 16 12 12 13 14 13 13 13 13 12 12 10 8 7 6 7 9 9 17 20 21 20 19 19 19 18 16 15
8 9 11 11 22 25 11 9 11 11 15 18 20 19 20 19 15 9 7 8 10 7 5 6 5 6 7 8 12 19 21 20 20 20 20 18 16 14
7 8 15 18 23 22 10 9 12 11 8 11 14 16 13 14 16 8 6 8 7 6 4 4 4 4 4 4 7 9 12 17 20 20 19 18 16 11
7 7 10 21 22 21 18 10 16 15 9 10 10 10 9 8 8 8 8 8 9 8 5 3 3 3 4 4 3 7 9 9 11 13 17 18 18 15
7 8 10 20 20 20 16 18 22 18 10 10 10 10 9 9 8 9 9 10 12 13 10 6 5 5 4 5 4 4 8 9 10 10 10 14 17 17
6 13 16 18 17 13 17 21 17 11 10 11 11 11 10 9 9 8 8 9 11 13 14 15 14 11 9 7 6 5 4 7 10 10 11 12 12 12
6 9 14 15 14 14 14 12 10 10 11 10 11 10 10 9 9 8 7 6 6 6 10 14 15 14 12 12 10 10 6 6 9 10 11 10 10 10
4 4 5 7 8 8 9 9 9 10 11 10 10 11 11 10 10 9 7 6 4 4 5 5 9 12 13 10 9 10 9 7 8 11 11 11 10 11
5 4 6 8 9 10 10 10 9 10 10 11 11 11 11 11 10 10 8 6 6 6 5 4 3 4 6 9 12 11 9 8 8 11 11 11 12 11
3 4 5 7 8 9 9 9 9 10 9 10 10 11 11 11 10 10 10 8 7 6 6 5 3 4 5 5 6 9 8 7 8 11 11 9 10 13
2 4 5 7 8 8 8 8 8 9 9 9 10 10 10 11 11 11 10 10 9 7 6 5 4 4 4 4 3 3 4 6 8 11 9 6 7 11
3 4 5 6 7 7 8 8 8 8 9 9 9 10 10 10 11 11 10 14 10 7 7 6 6 9 5 3 3 2 1 2 5 7 9 10 10 9
4 4 5 6 7 7 7 7 7 8 8 8 9 9 10 10 11 12 11 11 9 8 8 7 8 5 2 2 2 2 1 1 3 6 4 6 9 10
4 4 5 6 6 6 6 7 7 7 7 8 9 9 10 10 10 10 11 10 10 10 9 7 6 3 1 1 1 2 3 2 3 6 3 6 13 19
Wind_Direction
269 270 270 272 268 265 264 265 278 294 297 298 297 286 295 296 299 301 300 300 297 292 288 284 279 272 268 268 268 271 275 278 281 282 280 279 265 234
272 270 271 272 270 267 264 263 262 272 285 290 291 290 292 295 299 303 301 299 299 295 288 283 278 272 267 264 264 265 268 271 275 276 277 272 270 247
276 274 274 274 274 271 266 265 266 267 277 285 286 286 284 287 292 293 292 289 290 291 285 279 274 270 267 264 261 262 262 266 269 271 272 269 267 255
278 278 278 279 276 274 268 266 269 269 271 282 286 287 282 283 286 288 295 295 291 289 283 277 272 267 263 261 259 258 258 259 263 267 267 268 265 264
277 278 278 277 276 273 267 268 271 274 274 279 287 288 284 281 284 288 288 285 287 285 283 278 272 266 261 258 255 255 254 252 255 260 265 267 265 261
276 273 273 274 274 270 270 267 270 274 278 282 287 289 287 279 276 289 294 288 287 288 282 275 270 268 262 258 254 250 249 250 252 256 257 258 260 256
278 273 275 287 289 287 283 277 276 279 286 288 289 290 289 288 285 286 290 294 289 276 276 278 279 275 269 262 254 250 246 244 246 250 253 253 256 249
284 283 287 291 295 300 300 299 296 296 296 292 293 290 288 284 282 281 283 287 290 282 306 294 285 276 265 254 251 250 245 240 240 243 247 248 249 244
285 289 299 301 307 292 291 294 294 296 299 296 291 288 286 282 278 276 270 267 267 273 294 288 272 268 262 253 250 245 243 239 236 237 240 242 244 239
281 282 286 288 293 293 286 278 267 275 286 287 279 280 279 276 266 264 266 268 268 264 251 267 271 264 264 252 249 242 239 236 234 233 233 236 237 234
282 287 297 292 301 313 321 300 294 290 296 302 303 303 303 304 299 286 273 270 277 273 231 241 268 270 262 252 242 238 235 233 231 228 229 229 227 226
289 294 313 316 320 332 331 315 309 306 303 308 308 307 302 298 298 288 267 263 268 275 244 252 270 284 278 242 218 220 226 228 225 224 225 223 216 216
309 310 312 322 333 338 336 322 319 332 328 312 307 302 298 289 281 267 247 240 243 247 261 301 293 293 282 292 252 213 208 211 215 220 220 218 209 205
308 308 314 330 339 339 336 333 338 338 323 317 316 314 311 304 294 280 261 244 237 243 246 245 261 275 296 295 275 228 204 202 202 206 209 210 208 207
309 324 333 338 340 335 333 340 342 331 324 326 322 318 314 304 300 294 278 258 247 243 242 236 238 248 251 259 274 267 214 203 199 198 200 202 199 196
318 327 336 339 339 336 337 334 330 328 332 326 320 319 317 316 314 312 304 293 272 257 237 230 228 230 240 246 255 260 248 208 196 198 196 195 192 193
331 328 331 335 337 333 331 331 331 333 334 330 328 328 328 328 325 325 315 308 282 281 273 238 227 227 234 241 247 249 242 226 201 193 192 189 192 191
354 332 334 334 333 332 332 331 332 337 336 333 332 332 331 330 329 329 327 319 307 292 283 272 247 223 221 234 233 243 243 225 202 190 187 186 187 184
348 321 324 326 325 326 326 326 328 330 332 332 333 334 333 332 332 333 334 330 322 307 293 282 258 232 222 229 225 224 224 213 195 188 186 182 183 176
303 307 315 319 321 323 325 326 326 329 335 335 334 335 335 334 335 336 334 332 327 318 308 291 268 258 233 231 240 243 240 207 193 185 178 168 155 144
297 303 307 314 318 320 322 323 324 327 331 333 334 336 337 336 336 336 334 334 335 323 315 301 284 287 267 242 233 236 276 296 196 179 169 165 155 150
283 296 305 310 316 317 320 323 326 328 332 334 334 335 336 337 336 336 337 336 333 327 312 304 300 292 224 204 197 177 145 31 91 110 130 165 160 160
274 290 300 310 313 315 318 323 326 327 331 333 334 336 338 340 339 338 339 339 338 337 335 332 332 337 4 43 119 115 102 115 118 109 70 98 113 114
Height
1449 1445 1441 1436 1432 1428 1423 1418 1413 1402 1392 1388 1385 1381 1379 1375 1371 1368 1364 1361 1360 1360 1360 1361 1363 1365 1368 1370 1372 1374 1378 1382 1387 1392 1398 1405 1411 1416
1443 1438 1433 1428 1423 1419 1414 1410 1406 1400 1389 1382 1378 1375 1372 1369 1365 1362 1358 1355 1354 1353 1354 1355 1357 1359 1361 1363 1366 1368 1371 1375 1379 1385 1391 1398 1404 1409
1436 1431 1425 1420 1415 1410 1406 1402 1398 1393 1385 1376 1373 1368 1365 1361 1358 1355 1351 1348 1346 1346 1347 1349 1350 1352 1354 1356 1358 1361 1364 1368 1373 1378 1384 1391 1398 1405
1429 1423 1417 1412 1407 1402 1398 1394 1390 1385 1379 1371 1365 1362 1358 1355 1351 1347 1344 1341 1339 1339 1339 1340 1342 1343 1345 1347 1350 1353 1357 1361 1366 1372 1378 1385 1391 1397
1422 1415 1410 1404 1399 1395 1391 1386 1382 1377 1373 1366 1359 1355 1351 1348 1344 1340 1337 1334 1332 1331 1331 1331 1333 1335 1337 1339 1342 1345 1349 1355 1360 1365 1371 1378 1385 1391
1415 1409 1403 1398 1392 1387 1383 1379 1375 1370 1365 1360 1354 1348 1344 1341 1338 1333 1329 1326 1324 1323 1322 1323 1324 1326 1328 1331 1334 1338 1342 1347 1352 1358 1365 1372 1379 1385
1409 1404 1398 1392 1387 1382 1378 1373 1368 1363 1358 1353 1347 1342 1337 1334 1331 1327 1323 1319 1316 1316 1315 1315 1316 1317 1318 1322 1326 1330 1335 1340 1345 1352 1359 1366 1373 1380
1404 1398 1392 1386 1380 1375 1371 1367 1363 1358 1352 1346 1340 1335 1330 1327 1324 1321 1318 1314 1311 1310 1309 1308 1309 1309 1311 1315 1318 1323 1328 1333 1339 1345 1352 1360 1367 1374
1399 1392 1386 1380 1375 1369 1364 1359 1355 1351 1347 1341 1334 1328 1323 1320 1317 1314 1311 1309 1305 1304 1304 1300 1302 1302 1305 1308 1312 1316 1321 1327 1333 1339 1346 1353 1361 1369
1394 1388 1382 1375 1370 1364 1357 1352 1348 1343 1338 1332 1327 1321 1316 1313 1310 1308 1305 1302 1299 1298 1299 1295 1295 1297 1299 1301 1305 1309 1315 1320 1327 1333 1340 1348 1356 1363
1390 1384 1378 1372 1366 1360 1354 1347 1341 1336 1330 1325 1320 1314 1309 1306 1303 1302 1299 1298 1294 1292 1294 1293 1291 1292 1293 1295 1298 1303 1308 1314 1320 1327 1334 1342 1350 1358
1385 1380 1374 1369 1363 1357 1350 1343 1336 1330 1323 1317 1311 1306 1302 1298 1296 1294 1292 1291 1290 1288 1287 1289 1288 1290 1290 1290 1294 1298 1302 1308 1315 1322 1328 1336 1344 1352
1381 1376 1370 1366 1360 1354 1347 1341 1334 1327 1319 1312 1306 1301 1296 1292 1290 1288 1286 1285 1284 1283 1285 1285 1285 1286 1287 1287 1289 1293 1297 1302 1309 1315 1322 1330 1338 1345
1377 1372 1367 1363 1357 1350 1344 1338 1331 1323 1315 1309 1302 1297 1292 1287 1284 1281 1280 1278 1277 1277 1279 1281 1281 1282 1283 1284 1285 1288 1292 1298 1304 1310 1317 1325 1332 1340
1375 1370 1365 1360 1354 1348 1342 1336 1328 1320 1313 1307 1300 1294 1289 1284 1280 1277 1274 1273 1272 1271 1273 1275 1276 1278 1280 1280 1281 1283 1287 1292 1298 1305 1312 1319 1326 1334
1372 1367 1363 1358 1353 1347 1340 1333 1326 1320 1313 1306 1298 1292 1286 1281 1277 1273 1270 1268 1267 1267 1268 1270 1271 1273 1275 1276 1278 1279 1282 1287 1293 1299 1307 1314 1321 1329
1369 1365 1361 1355 1350 1344 1338 1332 1326 1319 1312 1305 1297 1290 1284 1279 1275 1271 1268 1266 1264 1264 1264 1266 1267 1269 1270 1272 1274 1274 1277 1282 1288 1294 1301 1309 1316 1324
1367 1363 1359 1354 1348 1343 1337 1331 1325 1319 1312 1305 1298 1291 1284 1278 1273 1270 1266 1264 1262 1261 1261 1262 1263 1265 1266 1267 1268 1269 1272 1276 1283 1290 1296 1304 1311 1319
1365 1361 1357 1353 1348 1343 1337 1332 1326 1320 1313 1306 1299 1291 1285 1279 1274 1269 1265 1262 1260 1259 1258 1258 1259 1260 1261 1261 1262 1265 1268 1272 1278 1284 1291 1298 1306 1314
1363 1360 1356 1352 1348 1343 1338 1332 1326 1320 1313 1307 1300 1293 1286 1280 1274 1270 1265 1262 1259 1257 1256 1256 1255 1255 1256 1257 1258 1260 1262 1267 1273 1279 1286 1295 1304 1312
1361 1358 1355 1351 1347 1343 1338 1333 1327 1321 1315 1308 1301 1294 1288 1282 1276 1271 1266 1263 1259 1256 1254 1253 1252 1252 1252 1254 1255 1256 1259 1263 1268 1273 1281 1289 1297 1305
1359 1357 1354 1351 1347 1342 1338 1333 1328 1322 1316 1310 1303 1296 1290 1284 1278 1272 1267 1263 1259 1256 1253 1251 1250 1250 1250 1251 1252 1253 1256 1260 1264 1271 1279 1285 1289 1297
1357 1355 1353 1350 1346 1342 1338 1333 1328 1323 1318 1312 1305 1299 1292 1286 1280 1275 1270 1265 1260 1256 1253 1250 1249 1248 1248 1248 1249 1251 1254 1257 1261 1267 1275 1282 1290 1297